Weather in Selishche

Russia / Novgorod Oblast     58°09′42″N   33°36′48″E
temp.,
°C
wind,
m/s
gust,
m/s
humid.,
%
clouds,
%
prec.,
mm/h
press.,
hPa
HPBL,
m
6 may, thu
thu600:00+5sse269762 0.0 1003191
03:00+4se31098100 0.0 1001284
06:00+6sse51396100 2.1 998474
09:00+11sse61584100 2.3 995717
12:00+12s81586100 0.8 9931780
15:00+6ssw61193100 3.4 995957
18:00+6sw71393100 1.1 9971287
21:00+5sw5129056 1.4 999942
7 may, fri
fri700:00+4sw6139170 0.0 1001914
03:00+4sw6138895 0.0 10011084
06:00+4sw61287100 0.0 10031067
09:00+6sw6117657 0.2 10041239
12:00+10sw7115474 0.2 10051921
15:00+10wsw6105292 0.3 10062056
18:00+10wsw485925 0.1 10071502
21:00+5sse2284100 0.1 100826
8 may, sat
sat800:00+4se3888100 0.0 1007151
03:00+5se31093100 0.3 1004391
06:00+6ese3997100 2.0 1001548
09:00+9s4990100 2.3 1000809
12:00+9sse2787100 0.9 999465
15:00+8se2696100 6.4 997328
18:00+8wsw3693100 5.0 996315
21:00+5ssw499494 5.6 996584
9 may, sun
sun900:00+3ssw4898100 0.0 996531
03:00+1wnw61597100 2.1 999989
06:00+3wnw91789100 2.4 10031222
09:00+5wnw715805 2.4 10081373
12:00+8wnw7116172 0.2 10131712
15:00+11wnw5949100 0.5 10152523
18:00+11w47485 0.0 10182103
21:00+5sw237295 0.0 102054
10 may, mon
mon1000:00+3ssw387870 0.0 1021135
03:00+3ssw388480 0.0 1023144
06:00+4ssw3107868 0.0 1024230
09:00+10ssw476170 0.0 1024625
12:00+9s4972100 0.0 1025517
15:00+15sw355859 0.0 10241123
18:00+15sw2464100 0.0 10241219
21:00+12ssw2279100 0.0 102627